"Time","Temp","Dewpoint","Humidity","Pressure","Direction","Speed","Gust","Precip","PrecipRate"
"00:04:56","51.9","41.9","68.5","29.69","290","7.3","20","0.00","0.00"
"00:09:56","51.9","42","69","29.69","311","5.8","15","0.00","0.00"
"00:14:59","51.9","42","69","29.69","315","5.4","15","0.00","0.00"
"00:19:56","51.8","42.1","69.3","29.69","310","4.2","13","0.00","0.00"
"00:24:56","51.8","41.9","69.1","29.69","324","7.6","16","0.00","0.00"
"00:29:56","51.8","41.9","69","29.69","275","7.3","19.6","0.00","0.00"
"00:34:57","51.8","42","69.3","29.69","313","5.6","17.3","0.00","0.00"
"00:39:58","51.8","42","69.2","29.69","312","8.1","20","0.00","0.00"
"00:44:58","51.9","42","69","29.69","326","7.6","19.6","0.00","0.00"
"00:49:51","51.9","42.1","69.2","29.69","333","7.7","21","0.00","0.00"
"00:54:57","51.9","42.2","69.4","29.69","320","6.1","20","0.00","0.00"
"00:59:56","51.9","42.3","69.7","29.69","316","7.2","19.6","0.00","0.00"
"01:04:58","51.9","42.3","69.7","29.69","312","5.7","18.4","0.00","0.00"
"01:09:59","51.9","42.3","69.8","29.69","309","6.5","19.6","0.00","0.00"
"01:14:57","51.9","42.4","70","29.69","337","5.2","16.1","0.00","0.00"
"01:19:57","51.9","42.4","70","29.69","314","4.7","15","0.00","0.00"
"01:24:58","51.9","42.4","69.9","29.69","308","7.7","18.4","0.00","0.00"
"01:29:58","51.9","42.4","70","29.69","321","5.4","14","0.00","0.00"
"01:34:59","51.9","42.4","70","29.69","305","5.7","20","0.00","0.00"
"01:39:59","51.9","42.6","70.3","29.69","311","7.2","15","0.00","0.00"
"01:44:58","52","42.5","70.2","29.70","300","5.3","13","0.00","0.00"
"01:49:59","51.9","42.7","70.8","29.70","305","5.2","17","0.00","0.00"
"01:54:57","51.9","42.7","70.8","29.70","319","6.3","19","0.00","0.00"
"01:59:57","52","42.8","71","29.70","310","5.6","13","0.00","0.00"
"02:04:56","51.9","42.8","71","29.69","288","6","15","0.00","0.00"
"02:09:58","51.9","42.9","71.3","29.69","331","4.6","11.5","0.00","0.00"
"02:14:58","51.9","43","71.3","29.70","7","6.5","16","0.00","0.00"
"02:19:58","51.9","43.2","72","29.70","292","4.3","12","0.00","0.00"
"02:24:56","51.9","43.2","72","29.70","335","7.6","22","0.00","0.00"
"02:29:57","51.9","43.2","72","29.70","327","6","17.3","0.00","0.00"
"02:34:58","51.9","43.2","72","29.70","329","5.7","12","0.00","0.00"
"02:39:56","52","43.3","72","29.70","332","4.9","14","0.00","0.00"
"02:44:56","52","43.3","72","29.71","330","6.7","15","0.00","0.00"
"02:49:59","52","43.5","72.5","29.71","322","5.9","17","0.00","0.00"
"02:54:58","51.9","43.6","73.2","29.71","346","5.8","20","0.00","0.00"
"02:59:58","51.8","43.8","74","29.71","312","4.6","12.7","0.00","0.00"
"03:04:58","51.7","43.8","74.3","29.71","326","6.5","20","0.00","0.00"
"03:09:56","51.6","43.9","75","29.71","318","5.3","19.6","0.00","0.00"
"03:14:59","51.5","43.8","75","29.72","304","6.7","18.4","0.00","0.00"
"03:19:58","51.5","44","75.4","29.72","334","4.8","13.8","0.00","0.00"
"03:24:56","51.5","44.2","76","29.72","308","3.9","11.5","0.00","0.00"
"03:29:58","51.5","44.1","75.7","29.72","317","5.1","12","0.00","0.00"
"03:34:57","51.6","44.3","75.9","29.72","314","5.6","18.4","0.00","0.00"
"03:39:57","51.6","44.3","76","29.72","312","3.8","12","0.00","0.00"
"03:44:56","51.7","44.4","76","29.72","315","7","19.6","0.00","0.00"
"03:49:59","51.8","44.5","76","29.72","328","7.8","17.3","0.00","0.00"
"03:54:59","51.8","44.5","76","29.72","332","4.9","15","0.00","0.00"
"03:59:58","51.8","44.5","76","29.72","336","6.2","16.1","0.00","0.00"
"04:04:58","51.9","44.6","76","29.72","319","3.8","16.1","0.00","0.00"
"04:09:56","51.9","44.6","76","29.72","321","4.2","15","0.00","0.00"
"04:14:56","51.9","44.6","76","29.73","327","4.6","15","0.00","0.00"
"04:19:58","51.9","44.6","76","29.73","333","6.3","13","0.00","0.00"
"04:24:57","51.9","44.6","76","29.73","331","4","11.5","0.00","0.00"
"04:29:56","51.9","44.6","76","29.74","319","5.4","19","0.00","0.00"
"04:34:55","52","44.7","76","29.74","322","5.4","18","0.00","0.00"
"04:39:56","52","44.8","76.1","29.74","327","5.1","14","0.00","0.00"
"04:44:57","52.1","44.8","76.2","29.75","310","4","13","0.00","0.00"
"04:49:56","52.1","44.8","76","29.75","320","7.7","16.1","0.00","0.00"
"04:54:59","52.2","44.9","75.8","29.75","330","5.9","14","0.00","0.00"
"04:59:57","52.3","44.9","75.8","29.75","323","5.3","17.3","0.00","0.00"
"05:04:56","52.3","44.9","75.8","29.75","303","4.8","15","0.00","0.00"
"05:09:58","52.4","44.9","75.6","29.75","319","6.8","17.3","0.00","0.00"
"05:14:58","52.4","44.9","75.5","29.75","311","4.5","10.4","0.00","0.00"
"05:19:56","52.4","44.9","75.5","29.75","321","4.6","12","0.00","0.00"
"05:24:57","52.5","44.9","75.3","29.75","314","5.4","15","0.00","0.00"
"05:29:58","52.5","45.5","77.2","29.77","326","4.8","13","0.00","0.00"
"05:34:57","52.2","45.5","78","29.77","337","5.4","21","0.00","0.00"
"05:39:59","52.1","45.5","78.3","29.77","292","5.1","14","0.00","0.00"
"05:44:57","51.9","45.6","79","29.77","326","4.9","12","0.00","0.00"
"05:49:59","51.8","45.7","79.4","29.77","314","5","17","0.00","0.00"
"05:54:58","51.8","45.8","79.9","29.77","316","5.1","13","0.00","0.00"
"05:59:59","51.8","45.8","80","29.77","318","5.5","14","0.00","0.00"
"06:04:59","51.8","45.8","80","29.77","341","4.9","14","0.00","0.00"
"06:09:58","51.9","45.9","80","29.77","346","3.9","9.2","0.00","0.00"
"06:14:59","51.9","45.9","79.9","29.77","316","5","15","0.00","0.00"
"06:19:58","52","45.7","79","29.77","311","7.3","15","0.00","0.00"
"06:24:57","52.1","45.8","79","29.77","320","5","11.5","0.00","0.00"
"06:29:57","52.1","45.8","79","29.77","325","6","13","0.00","0.00"
"06:34:57","52.1","45.8","79","29.77","324","5.1","16","0.00","0.00"
"06:39:56","52","45.7","79","29.77","312","5.1","17.3","0.00","0.00"
"06:44:56","52","45.7","79","29.77","322","3.9","11.5","0.00","0.00"
"06:49:59","52.1","45.8","79","29.77","314","4.7","12","0.00","0.00"
"06:54:56","52.2","45.6","78.4","29.77","317","3.4","12","0.00","0.00"
"06:59:56","52.2","45.6","78.2","29.77","320","5.1","12","0.00","0.00"
"07:04:56","52.3","45.6","78","29.77","323","3.2","11.5","0.00","0.00"
"07:09:58","52.3","45.6","78","29.77","316","4.3","11.5","0.00","0.00"
"07:14:58","52.4","45.7","78","29.78","343","4.5","11.5","0.00","0.00"
"07:19:58","52.4","45.7","78","29.78","331","4.3","16","0.00","0.00"
"07:24:56","52.5","45.8","78","29.78","325","4.6","13.8","0.00","0.00"
"07:29:58","52.5","45.8","78","29.79","331","3.2","10","0.00","0.00"
"07:34:58","52.5","45.8","78","29.79","330","4.7","14","0.00","0.00"
"07:39:57","52.6","45.9","78","29.79","315","2.8","11","0.00","0.00"
"07:44:57","52.6","45.9","78","29.79","315","3.3","11.5","0.00","0.00"
"07:49:59","52.5","45.8","78","29.79","316","3","9.2","0.00","0.00"
"07:54:59","52.5","45.8","78","29.79","320","4.6","12","0.00","0.00"
"07:59:57","52.5","45.8","78","29.79","325","3.8","13","0.00","0.00"
"08:04:56","52.5","45.8","78","29.79","320","3.6","12.7","0.00","0.00"
"08:09:58","52.4","45.7","78","29.79","324","3.8","11.5","0.00","0.00"
"08:14:56","52.4","45.7","78","29.80","322","4","11.5","0.00","0.00"
"08:19:57","52.4","45.7","78","29.80","321","2.9","9.2","0.00","0.00"
"08:24:58","52.4","45.7","78","29.80","319","4.2","9","0.00","0.00"
"08:29:59","52.5","45.8","78","29.81","304","3.4","11","0.00","0.00"
"08:34:58","52.6","45.9","78","29.81","317","4.5","12","0.00","0.00"
"08:39:56","52.8","46.1","78","29.81","307","2.1","6","0.00","0.00"
"08:44:56","53","46.2","77.8","29.81","322","2.9","11","0.00","0.00"
"08:49:58","53.3","46.3","76.8","29.81","313","5.7","12","0.00","0.00"
"08:54:58","53.6","46.3","76.1","29.81","317","6.2","19","0.00","0.00"
"08:59:57","53.9","46.4","75.7","29.82","320","4.5","10.4","0.00","0.00"
"09:04:57","54.2","46.6","75.4","29.82","315","5.1","11.5","0.00","0.00"
"09:09:59","54.4","46.6","75","29.82","315","6.6","17.3","0.00","0.00"
"09:14:57","54.6","46.8","75","29.82","309","5.8","14","0.00","0.00"
"09:19:57","55","47.3","75.3","29.82","312","3.5","11","0.00","0.00"
"09:24:58","55.3","47.4","74.7","29.82","284","4.6","13","0.00","0.00"
"09:29:57","55.6","47.5","74.1","29.82","286","5.6","13","0.00","0.00"
"09:34:56","55.8","47.5","73.8","29.82","302","5.7","13","0.00","0.00"
"09:39:56","56","47.7","73.7","29.82","291","6.3","13","0.00","0.00"
"09:44:56","56.2","48","74.2","29.82","298","4","11.5","0.00","0.00"
"09:49:56","56.5","48","73.1","29.82","307","5.1","15","0.00","0.00"
"09:54:57","56.6","47.9","72.6","29.82","334","6.6","15","0.00","0.00"
"09:59:58","56.8","48.1","72.7","29.83","306","5.7","15","0.00","0.00"
"10:04:56","57","48.4","73","29.83","328","4.6","12","0.00","0.00"
"10:09:57","57.4","48.9","73.2","29.83","314","3.9","10","0.00","0.00"
"10:14:59","57.8","48.9","72.1","29.83","322","5.3","23","0.00","0.00"
"10:19:56","57.9","48.7","71.4","29.83","322","7.3","23","0.00","0.00"
"10:24:57","58.1","49.3","72.3","29.83","309","6.4","14","0.00","0.00"
"10:29:59","58.5","49.4","71.9","29.83","285","5.6","13.8","0.00","0.00"
"10:34:58","58.8","49.5","71.1","29.83","305","6.1","18","0.00","0.00"
"10:39:59","58.9","49.8","71.7","29.83","320","5.8","16.1","0.00","0.00"
"10:44:59","59.2","49.9","71","29.83","311","5.3","18","0.00","0.00"
"10:49:57","59.3","49.6","70.2","29.82","316","7.7","19.6","0.00","0.00"
"10:54:59","59.3","49.8","70.8","29.82","318","7.3","15","0.00","0.00"
"10:59:59","59.5","49.8","70.4","29.82","331","6.3","14","0.00","0.00"
"11:04:57","59.9","50.4","70.9","29.81","325","6","14","0.00","0.00"
"11:09:59","60.2","50.7","71","29.81","313","4.3","15","0.00","0.00"
"11:14:58","60.7","51.1","70.8","29.82","322","4","15","0.00","0.00"
"11:19:57","61.2","50.9","69.1","29.82","318","5.8","14","0.00","0.00"
"11:24:57","61.3","51","69","29.82","320","4.8","13","0.00","0.00"
"11:29:57","61.6","51.3","69","29.82","323","5.7","17","0.00","0.00"
"11:34:57","61.9","51.5","68.7","29.82","319","4.9","13.8","0.00","0.00"
"11:39:57","62.3","51.8","68.4","29.82","341","4.4","17","0.00","0.00"
"11:44:57","62.6","51.8","67.7","29.82","335","6.1","14","0.00","0.00"
"11:49:57","62.8","52.4","68.8","29.82","294","4.4","12","0.00","0.00"
"11:54:59","63.1","52.3","67.8","29.82","318","4.8","15","0.00","0.00"
"11:59:59","63.4","52.4","67.6","29.82","321","6.6","22","0.00","0.00"
"12:04:54","63.4","52.5","67.8","29.82","325","5.2","18.4","0.00","0.00"
"12:09:56","63.6","52.2","66.5","29.82","315","7.5","18.4","0.00","0.00"
"12:14:58","63.7","52.5","67","29.82","324","6.1","18.4","0.00","0.00"
"12:19:58","64.1","52.6","66.4","29.81","326","5.9","12","0.00","0.00"
"12:24:58","64.4","52.8","66.1","29.81","321","5.7","15","0.00","0.00"
"12:29:59","64.9","53.2","66","29.81","288","5","18.4","0.00","0.00"
"12:34:59","65.2","53.6","66","29.81","315","3.8","13","0.00","0.00"
"12:39:57","65.5","53.2","64.6","29.81","319","5","15","0.00","0.00"
"12:44:59","65.5","53.1","64.4","29.81","310","4.8","12","0.00","0.00"
"12:49:57","65.6","53","63.8","29.81","320","6","18","0.00","0.00"
"12:54:57","65.9","53.5","64.3","29.81","317","5","13","0.00","0.00"
"12:59:59","66.2","53.7","64.2","29.81","331","6","17","0.00","0.00"
"13:04:56","66.4","53.6","63.5","29.81","305","6.6","20","0.00","0.00"
"13:09:57","66.4","53.1","62.3","29.81","335","6.8","19.6","0.00","0.00"
"13:14:56","66.5","54.1","64.4","29.81","318","4.8","17.3","0.00","0.00"
"13:19:57","66.6","53.1","61.7","29.81","331","7.8","17","0.00","0.00"
"13:24:59","66.5","53.2","62.3","29.81","322","7.8","17.3","0.00","0.00"
"13:29:56","66.6","53.3","62.2","29.81","332","5.5","18.4","0.00","0.00"
"13:34:58","66.9","53.5","62.2","29.81","288","4.5","13","0.00","0.00"
"13:39:58","67.1","53.5","61.7","29.81","307","6.1","15","0.00","0.00"
"13:44:59","67.4","54.1","62.4","29.81","328","5.7","14","0.00","0.00"
"13:49:57","67.6","53.1","59.8","29.80","340","8","17.3","0.00","0.00"
"13:54:56","67.5","53.2","60.2","29.80","324","6.1","16","0.00","0.00"
"13:59:57","67.8","54.1","61.5","29.80","136","6.2","16.1","0.00","0.00"
"14:04:56","68.2","53.9","60.5","29.80","318","6.1","14","0.00","0.00"
"14:09:58","68.3","54.2","60.8","29.80","339","6.8","17.3","0.00","0.00"
"14:14:57","68.3","53.2","58.7","29.80","356","9","20","0.00","0.00"
"14:19:58","68.3","54","60.1","29.80","323","5.2","16.1","0.00","0.00"
"14:24:56","68.8","54.1","59.4","29.80","309","4.5","12","0.00","0.00"
"14:29:59","68.9","53.7","58.4","29.80","327","6.2","17","0.00","0.00"
"14:34:57","68.6","53.4","58.5","29.80","333","7.3","19","0.00","0.00"
"14:39:56","68.6","53.6","58.7","29.80","318","6.5","16.1","0.00","0.00"
"14:44:56","68.6","53.5","58.6","29.80","349","5.5","15","0.00","0.00"
"14:49:56","68.8","54.1","59.4","29.80","348","3.5","19","0.00","0.00"
"14:54:57","69.2","54.4","59.2","29.80","344","5.1","15","0.00","0.00"
"14:59:56","69.4","54","58.2","29.80","304","6.8","19.6","0.00","0.00"
"15:04:56","69.4","54.1","58.2","29.80","337","6.3","16.1","0.00","0.00"
"15:09:58","69.3","53.9","57.9","29.80","345","6.7","18.4","0.00","0.00"
"15:14:57","69.3","54","58.2","29.80","357","7.1","13.8","0.00","0.00"
"15:19:58","69.4","54","58.1","29.80","338","5.3","13","0.00","0.00"
"15:24:56","69.7","54.4","58.3","29.80","348","6.2","13","0.00","0.00"
"15:29:57","69.6","54.1","57.7","29.80","343","5.7","15","0.00","0.00"
"15:34:58","69.7","54.1","57.7","29.80","328","5.5","14","0.00","0.00"
"15:39:58","69.8","54.4","58","29.80","329","4.8","12","0.00","0.00"
"15:44:59","69.9","54.3","57.8","29.81","319","4.1","11.5","0.00","0.00"
"15:49:56","70.2","54.6","57.7","29.81","326","6.2","14","0.00","0.00"
"15:54:58","70.1","54.2","57.1","29.81","332","4.5","12","0.00","0.00"
"15:59:59","70.4","55","58.3","29.81","325","3.3","9.2","0.00","0.00"
"16:04:58","70.6","54.6","56.9","29.81","309","3.7","10.4","0.00","0.00"
"16:09:55","70.5","54.3","56.5","29.81","325","5","13","0.00","0.00"
"16:14:57","70.3","54.6","57.4","29.81","331","4.2","11.5","0.00","0.00"
"16:19:58","70.4","54.5","57.1","29.81","322","3.3","9.2","0.00","0.00"
"16:24:59","70.3","54.4","57.1","29.81","336","5.6","16","0.00","0.00"
"16:29:59","70.1","54.3","57.4","29.81","328","5","16.1","0.00","0.00"
"16:34:56","69.9","54.3","57.6","29.81","325","5.1","15","0.00","0.00"
"16:39:59","69.7","54","57.6","29.81","342","6.3","15","0.00","0.00"
"16:44:56","69.5","54","57.8","29.81","311","5.1","11.5","0.00","0.00"
"16:49:57","69.4","54.2","58.4","29.81","336","3.6","10.4","0.00","0.00"
"16:54:58","69.5","54.2","58.5","29.81","339","4.4","11","0.00","0.00"
"16:59:56","69.5","54.3","58.5","29.81","337","4.3","11","0.00","0.00"
"17:04:56","69.5","54.6","59.1","29.81","310","3.4","10.4","0.00","0.00"
"17:09:58","69.5","54.4","58.6","29.81","341","5","12","0.00","0.00"
"17:14:56","69.4","54.2","58.5","29.81","334","4.2","10.4","0.00","0.00"
"17:19:58","69.2","54.4","59.2","29.81","325","3.9","11","0.00","0.00"
"17:24:59","68.9","54.1","59.2","29.81","335","4.1","11.5","0.00","0.00"
"17:29:58","68.7","54.2","59.9","29.82","333","5.2","12","0.00","0.00"
"17:34:59","68.5","54.1","60","29.82","324","3.9","10.4","0.00","0.00"
"17:39:57","68.2","54.2","61","29.82","325","2.5","7","0.00","0.00"
"17:44:59","67.6","53.9","61.3","29.82","318","3.4","10","0.00","0.00"
"17:49:59","67.1","53.5","61.8","29.82","327","5.2","15","0.00","0.00"
"17:54:56","66.8","53.5","62.2","29.82","321","3","11","0.00","0.00"
"17:59:58","66.5","53.3","62.4","29.82","321","3.6","9.2","0.00","0.00"
"18:04:57","66.3","53.3","63.1","29.82","332","2.6","9.2","0.00","0.00"
"18:09:56","66","53.4","63.8","29.82","320","1.2","3.5","0.00","0.00"
"18:14:58","65.6","53.4","64.7","29.83","249","0.6","4","0.00","0.00"
"18:19:59","65.3","53.2","65","29.83","306","2","6","0.00","0.00"
"18:24:58","65","53.4","66","29.83","324","1.8","6","0.00","0.00"
"18:29:56","64.7","53.1","66.1","29.83","356","1.6","4","0.00","0.00"
"18:34:57","64.4","53.1","66.8","29.83","339","2.4","7","0.00","0.00"
"18:39:59","64","53","67.5","29.83","332","2.1","9.2","0.00","0.00"
"18:44:59","63.8","53","68","29.83","339","3","6","0.00","0.00"
"18:49:56","63.6","52.8","68","29.83","328","1.6","7","0.00","0.00"
"18:54:59","63.4","52.8","68.2","29.83","307","2.2","7","0.00","0.00"
"18:59:59","63.1","52.8","69","29.84","329","2","5","0.00","0.00"
"19:04:59","62.9","52.6","69","29.84","329","1.3","6","0.00","0.00"
"19:09:58","62.6","52.6","69.6","29.84","287","1.9","5","0.00","0.00"
"19:14:56","62.5","52.6","70","29.84","326","2.8","11.5","0.00","0.00"
"19:19:58","62.3","52.4","70","29.84","326","3.6","9.2","0.00","0.00"
"19:24:56","62.2","52.3","70","29.84","331","2.6","6","0.00","0.00"
"19:29:56","62.1","52.2","70","29.85","319","2.5","7","0.00","0.00"
"19:34:52","61.9","52","70","29.85","332","3.2","9","0.00","0.00"
"19:39:56","61.8","51.9","70.2","29.85","312","2.9","7","0.00","0.00"
"19:44:58","61.6","52","70.9","29.86","332","2.2","11.5","0.00","0.00"
"19:49:58","61.3","51.8","71","29.86","357","3.7","14","0.00","0.00"
"19:54:59","61.2","51.7","71","29.86","346","3.3","13.8","0.00","0.00"
"19:59:56","61","51.8","71.6","29.87","323","2","7","0.00","0.00"
"20:04:56","60.8","51.3","71","29.87","322","3.3","6.9","0.00","0.00"
"20:09:58","60.7","51.4","71.5","29.87","333","3.8","11.5","0.00","0.00"
"20:14:59","60.6","51.5","71.9","29.87","342","4.3","10.4","0.00","0.00"
"20:19:58","60.5","51.4","72","29.87","315","2.9","10.4","0.00","0.00"
"20:24:58","60.4","51.3","72","29.87","332","4.2","10","0.00","0.00"
"20:29:57","60.4","51.3","72","29.88","329","2.7","9.2","0.00","0.00"
"20:34:57","60.2","51.1","72","29.88","296","2.2","6","0.00","0.00"
"20:39:57","59.9","50.9","72.1","29.88","342","1.9","4.6","0.00","0.00"
"20:44:57","59.7","51","73","29.88","338","1.9","5","0.00","0.00"
"20:49:59","59.4","51","73.7","29.88","341","2.1","8.1","0.00","0.00"
"20:54:56","59.2","50.9","74","29.88","336","2.2","6","0.00","0.00"
"20:59:56","59","50.7","74","29.88","337","2.6","10","0.00","0.00"
"21:04:56","58.9","50.6","74","29.88","327","2.1","7","0.00","0.00"
"21:09:58","58.8","50.6","74.2","29.88","310","2.1","6","0.00","0.00"
"21:14:58","58.6","50.7","75","29.89","326","1.8","7","0.00","0.00"
"21:19:57","58.5","50.6","75","29.89","314","1.8","6","0.00","0.00"
"21:24:56","58.3","50.5","75.2","29.89","302","1.5","5","0.00","0.00"
"21:29:59","58.1","50.6","76","29.89","317","1.4","4.6","0.00","0.00"
"21:34:59","58","50.5","76","29.89","334","1.5","5","0.00","0.00"
"21:39:58","57.8","50.3","76.1","29.89","317","1.8","7","0.00","0.00"
"21:44:57","57.7","50.2","76","29.90","316","1.9","4.6","0.00","0.00"
"21:49:57","57.7","50.3","76.2","29.90","323","2.2","5","0.00","0.00"
"21:54:56","57.5","50.3","77","29.90","257","1.7","4","0.00","0.00"
"21:59:59","57.4","50.2","77","29.91","258","1.1","3.5","0.00","0.00"
"22:04:58","57.1","50.2","77.5","29.91","293","1.8","4","0.00","0.00"
"22:09:56","57","50.2","78","29.91","308","1.1","3.5","0.00","0.00"
"22:14:56","56.8","50","78","29.91","308","1.4","4","0.00","0.00"
"22:19:58","56.7","50","78.4","29.91","308","1.4","3.5","0.00","0.00"
"22:24:58","56.5","50.1","79","29.91","309","0.9","3","0.00","0.00"
"22:29:58","56.2","49.9","79.2","29.91","309","0.7","2.3","0.00","0.00"
"22:34:56","56","49.9","79.8","29.90","309","1.5","3.5","0.00","0.00"
"22:39:59","55.8","49.7","80","29.90","309","0.5","2.3","0.00","0.00"
"22:44:56","55.5","49.6","80.3","29.91","309","0.1","1.2","0.00","0.00"
"22:49:59","55.2","49.5","81.2","29.91","309","0.6","2","0.00","0.00"
"22:54:58","55","49.6","82","29.91","309","0.9","4","0.00","0.00"
"22:59:59","54.7","49.3","82","29.91","309","0.9","2.3","0.00","0.00"
"23:04:58","54.4","49.2","82.7","29.91","309","0.4","2.3","0.00","0.00"
"23:09:57","54.2","49.4","83.6","29.91","309","1.2","3.5","0.00","0.00"
"23:14:58","54.2","49.4","83.8","29.92","309","0.2","2.3","0.00","0.00"
"23:19:56","54.1","49.3","83.5","29.92","309","0.2","1.2","0.00","0.00"
"23:24:59","54.1","49.4","84","29.92","309","0.8","2.3","0.00","0.00"
"23:29:57","54","49.3","84","29.92","309","0.1","2.3","0.00","0.00"
"23:34:56","53.9","49.2","84","29.92","309","0.3","2.3","0.00","0.00"
"23:39:57","53.7","49","84","29.92","309","0","0","0.00","0.00"
"23:44:57","53.6","48.9","84.1","29.92","309","0","1","0.00","0.00"
"23:49:56","53.4","49","85","29.92","309","0.1","1.2","0.00","0.00"
"23:54:57","53.2","48.8","85","29.92","309","0","0","0.00","0.00"
"23:59:56","53","48.6","85","29.92","309","0","0","0.00","0.00"
